�������l�o���
Date,Time,MP-1(��Sv/h),MP-2(��Sv/h),MP-3(��Sv/h),MP-4(��Sv/h),MP-5(��Sv/h),MP-6(��Sv/h),MP-7(��Sv/h),MP-8(��Sv/h),����,����(m/s),���J
2021/08/24,00:00,0.584,0.868,0.552,1.051,0.742,0.360,0.619,0.581,���k��,1.5,��
2021/08/24,00:10,0.583,0.868,0.553,1.052,0.740,0.359,0.621,0.581,��,1.2,��
2021/08/24,00:20,0.586,0.869,0.553,1.050,0.740,0.360,0.620,0.580,��,2.0,��
2021/08/24,00:30,0.584,0.866,0.552,1.050,0.743,0.360,0.620,0.582,���쐼,2.0,��
2021/08/24,00:40,0.585,0.868,0.553,1.051,0.742,0.359,0.621,0.582,��,2.0,��
2021/08/24,00:50,0.586,0.866,0.552,1.051,0.743,0.359,0.619,0.582,��,1.2,��
2021/08/24,01:00,0.584,0.868,0.554,1.051,0.741,0.360,0.620,0.582,�쐼,1.4,��
2021/08/24,01:10,0.585,0.867,0.553,1.052,0.742,0.360,0.621,0.583,�쐼,2.0,��
2021/08/24,01:20,0.583,0.868,0.553,1.051,0.741,0.359,0.619,0.581,�쐼,1.1,��
2021/08/24,01:30,0.585,0.868,0.552,1.051,0.743,0.361,0.620,0.583,��,0.8,��
2021/08/24,01:40,0.584,0.870,0.553,1.050,0.741,0.360,0.620,0.582,���k��,0.8,��
2021/08/24,01:50,0.586,0.866,0.552,1.049,0.742,0.361,0.619,0.582,�k��,0.9,��
2021/08/24,02:00,0.586,0.867,0.552,1.053,0.743,0.360,0.619,0.583,�k��,1.5,��
2021/08/24,02:10,0.586,0.866,0.554,1.052,0.742,0.359,0.621,0.582,�k�k��,1.7,��
2021/08/24,02:20,0.585,0.867,0.554,1.052,0.742,0.360,0.621,0.583,�k�k��,2.5,��
2021/08/24,02:30,0.585,0.870,0.553,1.052,0.741,0.361,0.622,0.583,�k�k��,2.6,��
2021/08/24,02:40,0.585,0.868,0.555,1.052,0.742,0.360,0.621,0.585,�k�k��,3.4,��
2021/08/24,02:50,0.586,0.868,0.555,1.053,0.743,0.361,0.620,0.583,�k�k��,4.2,��
2021/08/24,03:00,0.584,0.869,0.552,1.055,0.743,0.360,0.620,0.582,�k�k��,3.9,��
2021/08/24,03:10,0.585,0.869,0.553,1.052,0.742,0.361,0.621,0.584,�k�k��,4.5,��
2021/08/24,03:20,0.585,0.870,0.553,1.053,0.742,0.360,0.622,0.584,�k,4.0,��
2021/08/24,03:30,0.586,0.867,0.554,1.052,0.744,0.360,0.622,0.583,�k,3.0,��
2021/08/24,03:40,0.583,0.868,0.554,1.052,0.742,0.360,0.622,0.583,�k�k��,3.1,��
2021/08/24,03:50,0.586,0.867,0.554,1.052,0.742,0.361,0.621,0.582,�k�k��,2.8,��
2021/08/24,04:00,0.585,0.868,0.553,1.054,0.742,0.361,0.621,0.583,�k,2.5,��
2021/08/24,04:10,0.586,0.867,0.554,1.053,0.741,0.360,0.621,0.581,�k,2.0,��
2021/08/24,04:20,0.585,0.870,0.555,1.050,0.742,0.360,0.622,0.583,�k�k��,2.0,��
2021/08/24,04:30,0.586,0.870,0.553,1.053,0.742,0.360,0.622,0.583,�k�k��,1.7,��
2021/08/24,04:40,0.586,0.869,0.555,1.053,0.743,0.359,0.622,0.584,�k�k��,1.7,��
2021/08/24,04:50,0.586,0.871,0.553,1.054,0.742,0.360,0.621,0.583,�k�k��,1.5,��
2021/08/24,05:00,0.585,0.868,0.552,1.052,0.742,0.359,0.621,0.583,�k�k��,1.5,��
2021/08/24,05:10,0.584,0.870,0.553,1.054,0.743,0.360,0.621,0.582,�k,1.5,��
2021/08/24,05:20,0.586,0.870,0.554,1.054,0.743,0.360,0.621,0.582,�k�k��,2.5,��
2021/08/24,05:30,0.585,0.868,0.554,1.054,0.743,0.360,0.621,0.584,�k��,2.6,��
2021/08/24,05:40,0.585,0.869,0.554,1.053,0.741,0.361,0.622,0.583,�k�k��,3.6,��
2021/08/24,05:50,0.584,0.870,0.556,1.054,0.742,0.361,0.621,0.582,�k�k��,3.6,��
2021/08/24,06:00,0.585,0.869,0.554,1.055,0.741,0.359,0.621,0.582,�k�k��,3.0,��
2021/08/24,06:10,0.585,0.869,0.554,1.054,0.743,0.361,0.621,0.583,�k�k��,2.0,��
2021/08/24,06:20,0.586,0.868,0.554,1.053,0.743,0.360,0.621,0.582,�k,2.6,��
2021/08/24,06:30,0.584,0.868,0.554,1.055,0.743,0.360,0.621,0.584,�k,3.0,��
2021/08/24,06:40,0.585,0.869,0.554,1.053,0.741,0.359,0.621,0.584,�k,3.3,��
2021/08/24,06:50,0.586,0.868,0.555,1.055,0.743,0.360,0.622,0.583,�k,3.3,��
2021/08/24,07:00,0.584,0.870,0.555,1.055,0.744,0.358,0.621,0.583,�k,2.8,��
2021/08/24,07:10,0.584,0.869,0.554,1.052,0.743,0.359,0.622,0.583,�k,2.9,��
2021/08/24,07:20,0.586,0.868,0.555,1.054,0.743,0.361,0.620,0.582,�k,2.5,��
2021/08/24,07:30,0.585,0.868,0.554,1.053,0.742,0.359,0.621,0.583,�k�k��,2.6,��
2021/08/24,07:40,0.584,0.869,0.553,1.054,0.742,0.359,0.622,0.582,�k,1.7,��
2021/08/24,07:50,0.585,0.869,0.554,1.053,0.744,0.357,0.620,0.581,�k�k��,1.5,��
2021/08/24,08:00,0.585,0.867,0.554,1.052,0.744,0.358,0.620,0.582,�k,2.0,��
2021/08/24,08:10,0.585,0.869,0.553,1.052,0.743,0.359,0.619,0.582,�k,2.0,��
2021/08/24,08:20,0.585,0.868,0.554,1.052,0.742,0.360,0.621,0.581,�k,1.5,��
2021/08/24,08:30,0.585,0.866,0.554,1.053,0.741,0.359,0.621,0.583,�k,1.2,��
2021/08/24,08:40,0.584,0.867,0.553,1.054,0.741,0.360,0.620,0.582,�k�k��,1.5,��
2021/08/24,08:50,0.585,0.869,0.554,1.054,0.742,0.359,0.621,0.582,�k��,1.2,��
2021/08/24,09:00,0.585,0.865,0.553,1.054,0.742,0.359,0.620,0.581,�k�k��,1.2,��
2021/08/24,09:10,0.584,0.866,0.554,1.054,0.742,0.359,0.620,0.580,�k,1.7,��
2021/08/24,09:20,0.585,0.866,0.552,1.051,0.740,0.359,0.622,0.580,�k�k��,1.2,��
2021/08/24,09:30,0.585,0.866,0.552,1.053,0.741,0.358,0.621,0.579,�k��,1.2,��
2021/08/24,09:40,0.586,0.869,0.551,1.053,0.742,0.357,0.619,0.581,�k��,1.4,��
2021/08/24,09:50,0.585,0.867,0.553,1.054,0.741,0.360,0.620,0.582,���k��,1.7,��
2021/08/24,10:00,0.584,0.868,0.553,1.055,0.740,0.360,0.621,0.580,�k��,1.7,��
2021/08/24,10:10,0.582,0.869,0.553,1.053,0.741,0.358,0.622,0.579,�k��,1.9,��
2021/08/24,10:20,0.585,0.870,0.552,1.055,0.744,0.358,0.621,0.582,��,2.6,��
2021/08/24,10:30,0.586,0.866,0.553,1.054,0.745,0.358,0.622,0.579,��,2.3,��
2021/08/24,10:40,0.587,0.869,0.555,1.053,0.743,0.358,0.619,0.581,�k��,1.7,��
2021/08/24,10:50,0.586,0.868,0.553,1.055,0.745,0.358,0.622,0.580,���k��,0.9,��
2021/08/24,11:00,0.587,0.868,0.553,1.054,0.744,0.360,0.620,0.581,��,1.4,��
2021/08/24,11:10,0.585,0.871,0.554,1.055,0.746,0.359,0.621,0.581,��,2.0,��
2021/08/24,11:20,0.584,0.871,0.553,1.053,0.744,0.359,0.621,0.581,��,1.9,��
2021/08/24,11:30,0.585,0.868,0.553,1.054,0.745,0.358,0.621,0.580,���쓌,1.5,��
2021/08/24,11:40,0.584,0.870,0.553,1.053,0.747,0.357,0.621,0.581,��,2.3,��
2021/08/24,11:50,0.585,0.873,0.553,1.054,0.744,0.358,0.621,0.582,��,2.0,��
2021/08/24,12:00,0.588,0.872,0.555,1.055,0.744,0.360,0.621,0.580,���k��,1.9,��
2021/08/24,12:10,0.588,0.874,0.554,1.055,0.746,0.360,0.621,0.581,���k��,2.6,��
2021/08/24,12:20,0.587,0.873,0.555,1.054,0.746,0.361,0.620,0.583,���k��,2.3,��
2021/08/24,12:30,0.587,0.872,0.554,1.050,0.745,0.359,0.622,0.580,���k��,3.7,��
2021/08/24,12:40,0.588,0.871,0.555,1.055,0.745,0.358,0.619,0.581,���k��,3.4,��
2021/08/24,12:50,0.587,0.874,0.555,1.057,0.746,0.359,0.620,0.581,�k��,2.0,��
2021/08/24,13:00,0.588,0.871,0.555,1.053,0.744,0.358,0.621,0.581,���k��,1.5,��
2021/08/24,13:10,0.587,0.873,0.555,1.056,0.746,0.361,0.621,0.579,�k��,1.9,��
2021/08/24,13:20,0.585,0.874,0.555,1.056,0.745,0.358,0.621,0.582,�k��,2.0,��
2021/08/24,13:30,0.587,0.872,0.554,1.054,0.746,0.359,0.621,0.581,�k��,1.5,��
2021/08/24,13:40,0.585,0.871,0.554,1.058,0.747,0.359,0.622,0.583,��,1.9,��
2021/08/24,13:50,0.585,0.872,0.554,1.057,0.748,0.359,0.621,0.583,���쓌,2.2,��
2021/08/24,14:00,0.585,0.873,0.556,1.056,0.746,0.359,0.623,0.583,���쓌,2.2,��
2021/08/24,14:10,0.585,0.872,0.554,1.058,0.746,0.359,0.621,0.583,���k��,2.3,��
2021/08/24,14:20,0.587,0.873,0.554,1.054,0.745,0.359,0.621,0.582,��,2.3,��
2021/08/24,14:30,0.586,0.872,0.555,1.055,0.746,0.360,0.622,0.583,���k��,1.5,��
2021/08/24,14:40,0.587,0.871,0.554,1.057,0.746,0.359,0.623,0.583,���k��,2.2,��
2021/08/24,14:50,0.585,0.875,0.556,1.057,0.745,0.359,0.623,0.583,���k��,2.2,��
2021/08/24,15:00,0.586,0.876,0.555,1.055,0.746,0.360,0.622,0.583,���k��,2.6,��
2021/08/24,15:10,0.585,0.874,0.555,1.058,0.745,0.359,0.623,0.582,���k��,1.5,��
2021/08/24,15:20,0.585,0.875,0.554,1.057,0.745,0.357,0.623,0.582,�k��,1.5,��
2021/08/24,15:30,0.585,0.873,0.554,1.057,0.746,0.359,0.623,0.585,���k��,1.5,��
2021/08/24,15:40,0.587,0.874,0.556,1.058,0.742,0.359,0.621,0.584,�k��,1.5,��
2021/08/24,15:50,0.586,0.875,0.554,1.058,0.745,0.359,0.623,0.585,�k��,1.5,��
2021/08/24,16:00,0.585,0.874,0.556,1.056,0.744,0.359,0.622,0.584,�k��,2.0,��
2021/08/24,16:10,0.585,0.875,0.556,1.056,0.745,0.358,0.623,0.583,�k��,1.7,��
2021/08/24,16:20,0.585,0.874,0.557,1.058,0.746,0.359,0.622,0.582,�k�k��,0.9,��
2021/08/24,16:30,0.586,0.873,0.554,1.056,0.745,0.359,0.623,0.583,�k�k��,0.6,��
2021/08/24,16:40,0.584,0.872,0.555,1.058,0.747,0.359,0.624,0.583,-,CALM,��
2021/08/24,16:50,0.586,0.874,0.556,1.059,0.746,0.358,0.622,0.583,���k��,0.8,��
2021/08/24,17:00,0.585,0.874,0.556,1.058,0.745,0.359,0.624,0.584,��,2.0,�L
2021/08/24,17:10,0.586,0.874,0.558,1.058,0.746,0.359,0.622,0.583,���쓌,2.3,�L
2021/08/24,17:20,0.585,0.875,0.555,1.058,0.746,0.360,0.622,0.584,���쓌,2.5,�L
2021/08/24,17:30,0.586,0.877,0.556,1.058,0.746,0.359,0.623,0.583,���쓌,1.5,�L
2021/08/24,17:40,0.586,0.876,0.553,1.056,0.744,0.361,0.623,0.584,-,CALM,�L
2021/08/24,17:50,0.585,0.875,0.556,1.060,0.744,0.360,0.623,0.584,��쓌,1.9,�L
2021/08/24,18:00,0.584,0.872,0.556,1.058,0.745,0.361,0.624,0.584,�쓌,2.3,�L
2021/08/24,18:10,0.584,0.871,0.556,1.057,0.745,0.360,0.623,0.583,�쓌,2.3,�L
2021/08/24,18:20,0.586,0.871,0.556,1.056,0.743,0.360,0.621,0.583,�쓌,1.5,�L
2021/08/24,18:30,0.585,0.872,0.555,1.057,0.744,0.360,0.622,0.583,��쓌,2.3,�L
2021/08/24,18:40,0.586,0.872,0.554,1.057,0.744,0.359,0.624,0.583,��쓌,1.5,�L
2021/08/24,18:50,0.586,0.870,0.555,1.056,0.743,0.360,0.622,0.584,��쓌,1.7,�L
2021/08/24,19:00,0.585,0.869,0.555,1.058,0.745,0.360,0.622,0.582,��쓌,1.7,�L
2021/08/24,19:10,0.584,0.869,0.555,1.057,0.744,0.358,0.622,0.583,��,1.4,�L
2021/08/24,19:20,0.585,0.870,0.556,1.055,0.741,0.360,0.622,0.583,��쓌,1.9,�L
2021/08/24,19:30,0.585,0.871,0.554,1.059,0.742,0.360,0.621,0.583,��쓌,1.5,�L
2021/08/24,19:40,0.584,0.869,0.555,1.057,0.743,0.360,0.622,0.583,��쓌,1.1,�L
2021/08/24,19:50,0.583,0.870,0.555,1.059,0.742,0.361,0.621,0.583,��쐼,0.8,�L
2021/08/24,20:00,0.584,0.870,0.555,1.057,0.743,0.360,0.620,0.581,��쐼,0.8,�L
2021/08/24,20:10,0.587,0.870,0.556,1.059,0.740,0.360,0.621,0.583,��쐼,0.9,�L
2021/08/24,20:20,0.584,0.871,0.555,1.059,0.743,0.360,0.621,0.583,��쐼,0.6,�L
2021/08/24,20:30,0.584,0.871,0.556,1.055,0.741,0.360,0.622,0.582,-,CALM,�L
2021/08/24,20:40,0.585,0.869,0.553,1.056,0.742,0.361,0.620,0.582,-,CALM,�L
2021/08/24,20:50,0.584,0.870,0.553,1.055,0.742,0.360,0.620,0.581,-,CALM,�L
2021/08/24,21:00,0.584,0.868,0.553,1.057,0.740,0.358,0.621,0.582,-,CALM,�L
2021/08/24,21:10,0.585,0.866,0.554,1.054,0.740,0.359,0.620,0.580,��,0.8,�L
2021/08/24,21:20,0.583,0.867,0.553,1.055,0.741,0.360,0.619,0.581,�k��,1.7,�L
2021/08/24,21:30,0.582,0.864,0.552,1.052,0.738,0.359,0.618,0.580,��쓌,1.2,�L
2021/08/24,21:40,0.582,0.862,0.553,1.050,0.738,0.360,0.617,0.579,��쓌,0.9,�L
2021/08/24,21:50,0.579,0.861,0.551,1.050,0.736,0.360,0.617,0.579,��쓌,0.9,�L
2021/08/24,22:00,0.580,0.857,0.552,1.050,0.736,0.359,0.618,0.578,-,CALM,�L
2021/08/24,22:10,0.579,0.858,0.551,1.050,0.733,0.360,0.616,0.578,��쓌,2.0,�L
2021/08/24,22:20,0.578,0.854,0.551,1.046,0.733,0.359,0.616,0.576,��쓌,2.0,�L
2021/08/24,22:30,0.576,0.854,0.552,1.044,0.731,0.359,0.615,0.576,��쓌,2.6,�L
2021/08/24,22:40,0.576,0.853,0.551,1.042,0.730,0.359,0.614,0.576,��쓌,2.6,�L
2021/08/24,22:50,0.575,0.850,0.549,1.038,0.730,0.360,0.616,0.576,��쓌,2.0,�L
2021/08/24,23:00,0.577,0.850,0.549,1.038,0.729,0.360,0.614,0.576,��쓌,1.2,�L
2021/08/24,23:10,0.575,0.851,0.549,1.038,0.730,0.360,0.615,0.575,��,2.0,�L
2021/08/24,23:20,0.577,0.851,0.549,1.039,0.731,0.360,0.613,0.575,��쐼,1.1,�L
2021/08/24,23:30,0.576,0.854,0.548,1.038,0.730,0.359,0.613,0.575,��쐼,0.9,�L
2021/08/24,23:40,0.575,0.851,0.549,1.037,0.729,0.359,0.612,0.577,��,0.9,�L
2021/08/24,23:50,0.576,0.851,0.547,1.038,0.730,0.358,0.612,0.577,��쐼,1.5,�L
